| time (UTC) | temp F | wind direction | speed knots | gust knots | rain 1hr in | rain 24hr in | rain mn in | humidity % | barometer mb |
| 20260508152005 | 66 | 229 | 1.7 | 4.3 | 0.00 | 0.00 | 0.00 | 45 | 1016.3 |
| 20260508150018 | 64 | 212 | 0.9 | 5.2 | 0.00 | 0.00 | 0.00 | 50 | 1016.5 |
| 20260508145007 | 63 | 211 | 0.9 | 3.5 | 0.00 | 0.00 | 0.00 | 47 | 1016.6 |
| 20260508143010 | 62 | 237 | 0.9 | 4.3 | 0.00 | 0.00 | 0.00 | 50 | 1016.4 |
| 20260508141511 | 61 | 258 | 0.9 | 6.1 | 0.00 | 0.00 | 0.00 | 52 | 1016.7 |
| 20260508141004 | 60 | 260 | 0.9 | 6.1 | 0.00 | 0.00 | 0.00 | 54 | 1016.6 |
| 20260508140008 | 59 | 257 | 0.9 | 2.6 | 0.00 | 0.00 | 0.00 | 55 | 1016.7 |
| 20260508131512 | 52 | 291 | 0.9 | 4.3 | 0.00 | 0.00 | 0.00 | 65 | 1016.9 |
| 20260508131008 | 51 | 282 | 2.6 | 4.3 | 0.00 | 0.00 | 0.00 | 66 | 1016.9 |
| 20260508130509 | 51 | 287 | 1.7 | 3.5 | 0.00 | 0.00 | 0.00 | 66 | 1016.9 |
| 20260508130014 | 50 | 295 | 0.9 | 2.6 | 0.00 | 0.00 | 0.00 | 67 | 1017.0 |
| 20260508124507 | 50 | 291 | 1.7 | 3.5 | 0.00 | 0.00 | 0.00 | 69 | 1016.8 |
| 20260508123012 | 48 | 285 | 0.9 | 2.6 | 0.00 | 0.00 | 0.00 | 72 | 1016.9 |
| 20260508122507 | 47 | 289 | 1.7 | 6.1 | 0.00 | 0.00 | 0.00 | 73 | 1016.8 |
| 20260508122008 | 47 | 287 | 1.7 | 6.1 | 0.00 | 0.00 | 0.00 | 74 | 1016.7 |
| 20260508121006 | 46 | 296 | 2.6 | 4.3 | 0.00 | 0.00 | 0.00 | 77 | 1016.7 |
| 20260508120027 | 44 | 299 | 0.9 | 3.5 | 0.00 | 0.00 | 0.00 | 82 | 1016.7 |
| 20260508115508 | 43 | 299 | 1.7 | 3.5 | 0.00 | 0.00 | 0.00 | 83 | 1016.6 |
| 20260508115004 | 42 | 305 | 0.0 | 1.7 | 0.00 | 0.00 | 0.00 | 89 | 1016.6 |
| 20260508114512 | 41 | 305 | 0.0 | 0.0 | 0.00 | 0.00 | 0.00 | 90 | 1016.7 |
| 20260508113507 | 39 | 305 | 0.0 | 0.0 | 0.00 | 0.00 | 0.00 | 90 | 1016.6 |
| 20260508112007 | 37 | 305 | 0.0 | 0.0 | 0.00 | 0.00 | 0.00 | 89 | 1016.7 |
| 20260508111523 | 37 | 305 | 0.0 | 0.0 | 0.00 | 0.00 | 0.00 | 88 | 1016.6 |
| 20260508111004 | 37 | 305 | 0.0 | 0.0 | 0.00 | 0.00 | 0.00 | 88 | 1016.5 |
| 20260508110508 | 37 | 305 | 0.0 | 0.0 | 0.00 | 0.00 | 0.00 | 88 | 1016.5 |
| 20260508110014 | 37 | 305 | 0.0 | 0.0 | 0.00 | 0.00 | 0.00 | 88 | 1016.5 |
| 20260508105507 | 37 | 305 | 0.0 | 0.0 | 0.00 | 0.00 | 0.00 | 88 | 1016.4 |
| 20260508105010 | 37 | 305 | 0.0 | 0.0 | 0.00 | 0.00 | 0.00 | 88 | 1016.4 |
| 20260508104514 | 36 | 305 | 0.0 | 0.0 | 0.00 | 0.00 | 0.00 | 87 | 1016.3 |
| 20260508104007 | 36 | 305 | 0.0 | 0.0 | 0.00 | 0.00 | 0.00 | 87 | 1016.2 |
| 20260508103507 | 36 | 305 | 0.0 | 1.7 | 0.00 | 0.00 | 0.00 | 87 | 1016.1 |
| 20260508103021 | 37 | 305 | 0.0 | 1.7 | 0.00 | 0.00 | 0.00 | 87 | 1016.1 |
| 20260508102506 | 37 | 305 | 0.0 | 1.7 | 0.00 | 0.00 | 0.00 | 87 | 1016.0 |
| 20260508102010 | 37 | 305 | 0.0 | 0.0 | 0.00 | 0.00 | 0.00 | 87 | 1016.0 |
| 20260508101516 | 37 | 305 | 0.0 | 0.0 | 0.00 | 0.00 | 0.00 | 86 | 1016.0 |
| 20260508101007 | 37 | 305 | 0.0 | 0.0 | 0.00 | 0.00 | 0.00 | 86 | 1015.9 |
| 20260508100506 | 37 | 305 | 0.0 | 0.0 | 0.00 | 0.00 | 0.00 | 86 | 1015.9 |
| 20260508100016 | 37 | 305 | 0.0 | 1.7 | 0.00 | 0.00 | 0.00 | 87 | 1015.9 |
| 20260508095507 | 37 | 305 | 0.0 | 1.7 | 0.00 | 0.00 | 0.00 | 87 | 1016.0 |
| 20260508095007 | 37 | 305 | 0.0 | 1.7 | 0.00 | 0.00 | 0.00 | 87 | 1015.9 |
| 20260508094518 | 37 | 305 | 0.0 | 1.7 | 0.00 | 0.00 | 0.00 | 87 | 1016.0 |
| 20260508094006 | 37 | 305 | 0.0 | 1.7 | 0.00 | 0.00 | 0.00 | 87 | 1016.0 |
| 20260508093018 | 37 | 305 | 0.0 | 1.7 | 0.00 | 0.00 | 0.00 | 87 | 1015.9 |
| 20260508092507 | 37 | 305 | 0.0 | 1.7 | 0.00 | 0.00 | 0.00 | 87 | 1015.9 |
| 20260508092007 | 37 | 305 | 0.0 | 1.7 | 0.00 | 0.00 | 0.00 | 87 | 1016.0 |
| 20260508091509 | 37 | 305 | 0.0 | 1.7 | 0.00 | 0.00 | 0.00 | 87 | 1016.0 |
| 20260508091004 | 37 | 305 | 0.0 | 1.7 | 0.00 | 0.00 | 0.00 | 87 | 1015.9 |
| 20260508090507 | 37 | 305 | 0.0 | 1.7 | 0.00 | 0.00 | 0.00 | 87 | 1015.9 |
| 20260508090016 | 37 | 305 | 0.0 | 1.7 | 0.00 | 0.00 | 0.00 | 87 | 1015.8 |
| 20260508085507 | 37 | 305 | 0.9 | 1.7 | 0.00 | 0.00 | 0.00 | 87 | 1015.8 |
| 20260508085007 | 38 | 305 | 0.0 | 0.9 | 0.00 | 0.00 | 0.00 | 86 | 1015.8 |
| 20260508084516 | 38 | 305 | 0.0 | 1.7 | 0.00 | 0.00 | 0.00 | 86 | 1015.7 |
| 20260508084009 | 38 | 305 | 0.0 | 1.7 | 0.00 | 0.00 | 0.00 | 86 | 1015.7 |
| 20260508083507 | 38 | 305 | 0.0 | 1.7 | 0.00 | 0.00 | 0.00 | 86 | 1015.7 |
| 20260508083018 | 38 | 305 | 0.0 | 0.9 | 0.00 | 0.00 | 0.00 | 86 | 1015.7 |
| 20260508082507 | 38 | 305 | 0.0 | 0.0 | 0.00 | 0.00 | 0.00 | 86 | 1015.7 |
| 20260508082007 | 38 | 305 | 0.0 | 0.0 | 0.00 | 0.00 | 0.00 | 86 | 1015.6 |
| 20260508081519 | 38 | 305 | 0.0 | 1.7 | 0.00 | 0.00 | 0.00 | 86 | 1015.6 |
| 20260508081008 | 38 | 305 | 0.0 | 1.7 | 0.00 | 0.00 | 0.00 | 86 | 1015.7 |
| 20260508080016 | 38 | 305 | 0.0 | 0.0 | 0.00 | 0.00 | 0.00 | 85 | 1015.6 |
| 20260508075509 | 38 | 305 | 0.0 | 0.9 | 0.00 | 0.00 | 0.00 | 85 | 1015.7 |
| 20260508075012 | 38 | 305 | 0.0 | 1.7 | 0.00 | 0.00 | 0.00 | 85 | 1015.6 |
| 20260508074519 | 38 | 305 | 0.0 | 1.7 | 0.00 | 0.00 | 0.00 | 85 | 1015.5 |
| 20260508074008 | 38 | 305 | 0.0 | 1.7 | 0.00 | 0.00 | 0.00 | 85 | 1015.5 |
| 20260508073507 | 38 | 305 | 0.0 | 1.7 | 0.00 | 0.00 | 0.00 | 85 | 1015.5 |
| 20260508073018 | 38 | 305 | 0.0 | 1.7 | 0.00 | 0.00 | 0.00 | 85 | 1015.5 |
| 20260508072508 | 39 | 305 | 0.0 | 1.7 | 0.00 | 0.00 | 0.00 | 85 | 1015.5 |
| 20260508072010 | 39 | 305 | 0.0 | 1.7 | 0.00 | 0.00 | 0.00 | 85 | 1015.5 |
| 20260508071518 | 39 | 305 | 0.0 | 1.7 | 0.00 | 0.00 | 0.00 | 85 | 1015.5 |
| 20260508071004 | 39 | 305 | 0.9 | 1.7 | 0.00 | 0.00 | 0.00 | 85 | 1015.5 |
| 20260508070504 | 39 | 305 | 0.0 | 1.7 | 0.00 | 0.00 | 0.00 | 85 | 1015.5 |
| 20260508070011 | 39 | 305 | 0.0 | 1.7 | 0.00 | 0.00 | 0.00 | 85 | 1015.6 |
| 20260508065506 | 39 | 305 | 0.0 | 1.7 | 0.00 | 0.00 | 0.00 | 85 | 1015.5 |
| 20260508065007 | 39 | 305 | 0.0 | 1.7 | 0.00 | 0.00 | 0.00 | 84 | 1015.5 |
| 20260508064525 | 39 | 305 | 0.0 | 0.0 | 0.00 | 0.00 | 0.00 | 84 | 1015.5 |
| 20260508064006 | 40 | 305 | 0.0 | 0.0 | 0.00 | 0.00 | 0.00 | 84 | 1015.5 |
| 20260508063512 | 40 | 305 | 0.0 | 0.9 | 0.00 | 0.00 | 0.00 | 84 | 1015.6 |
| 20260508063003 | 40 | 305 | 0.0 | 1.7 | 0.00 | 0.00 | 0.00 | 84 | 1015.6 |
| 20260508062503 | 40 | 305 | 0.0 | 1.7 | 0.00 | 0.00 | 0.00 | 84 | 1015.7 |
| 20260508062003 | 40 | 305 | 0.0 | 1.7 | 0.00 | 0.00 | 0.00 | 83 | 1015.7 |
| 20260508061508 | 40 | 305 | 0.0 | 1.7 | 0.00 | 0.00 | 0.00 | 83 | 1015.7 |
| 20260508061003 | 40 | 305 | 0.0 | 1.7 | 0.00 | 0.00 | 0.00 | 83 | 1015.8 |
| 20260508060506 | 40 | 305 | 0.0 | 1.7 | 0.00 | 0.00 | 0.00 | 83 | 1015.8 |
| 20260508060011 | 40 | 305 | 0.0 | 1.7 | 0.00 | 0.00 | 0.00 | 83 | 1015.8 |
| 20260508055504 | 40 | 305 | 0.0 | 1.7 | 0.00 | 0.00 | 0.00 | 83 | 1015.8 |
| 20260508055007 | 41 | 305 | 0.0 | 1.7 | 0.00 | 0.00 | 0.00 | 83 | 1015.8 |
| 20260508054515 | 41 | 305 | 0.0 | 1.7 | 0.00 | 0.00 | 0.00 | 82 | 1015.8 |
| 20260508054005 | 41 | 305 | 0.0 | 1.7 | 0.00 | 0.00 | 0.00 | 82 | 1015.8 |
| 20260508053506 | 41 | 305 | 0.0 | 1.7 | 0.00 | 0.00 | 0.00 | 82 | 1015.8 |
| 20260508053020 | 41 | 305 | 0.0 | 0.9 | 0.00 | 0.00 | 0.00 | 82 | 1015.8 |
| 20260508052508 | 41 | 305 | 0.0 | 0.0 | 0.00 | 0.00 | 0.00 | 81 | 1015.7 |
| 20260508052003 | 41 | 305 | 0.0 | 0.0 | 0.00 | 0.00 | 0.00 | 81 | 1015.6 |
| 20260508051004 | 42 | 305 | 0.0 | 1.7 | 0.00 | 0.00 | 0.00 | 80 | 1015.6 |
| 20260508050504 | 42 | 305 | 0.0 | 1.7 | 0.00 | 0.00 | 0.00 | 80 | 1015.7 |
| 20260508050010 | 42 | 305 | 0.0 | 1.7 | 0.00 | 0.00 | 0.00 | 80 | 1015.7 |
| 20260508045503 | 42 | 305 | 0.0 | 0.9 | 0.00 | 0.00 | 0.00 | 79 | 1015.7 |
| 20260508045004 | 42 | 305 | 0.0 | 1.7 | 0.00 | 0.00 | 0.00 | 79 | 1015.7 |
| 20260508044511 | 42 | 305 | 0.0 | 1.7 | 0.00 | 0.00 | 0.00 | 79 | 1015.8 |
| 20260508044009 | 42 | 305 | 0.0 | 1.7 | 0.00 | 0.00 | 0.00 | 79 | 1015.9 |
| 20260508043507 | 43 | 305 | 0.9 | 1.7 | 0.00 | 0.00 | 0.00 | 79 | 1015.8 |
| 20260508043021 | 43 | 305 | 0.0 | 0.9 | 0.00 | 0.00 | 0.00 | 78 | 1015.8 |
| 20260508042506 | 43 | 305 | 0.0 | 0.9 | 0.00 | 0.00 | 0.00 | 78 | 1015.8 |
| 20260508041519 | 43 | 305 | 0.0 | 0.0 | 0.00 | 0.00 | 0.00 | 77 | 1015.8 |
| 20260508041011 | 43 | 305 | 0.0 | 1.7 | 0.00 | 0.00 | 0.00 | 76 | 1015.8 |
| 20260508040504 | 43 | 305 | 0.0 | 1.7 | 0.00 | 0.00 | 0.00 | 77 | 1015.9 |
| 20260508040005 | 44 | 305 | 0.0 | 0.9 | 0.00 | 0.00 | 0.00 | 77 | 1015.9 |
| 20260508035505 | 44 | 305 | 0.0 | 0.9 | 0.00 | 0.00 | 0.00 | 76 | 1015.8 |
| 20260508035003 | 44 | 305 | 0.0 | 0.9 | 0.00 | 0.00 | 0.00 | 76 | 1015.8 |
| 20260508034508 | 44 | 305 | 0.0 | 0.9 | 0.00 | 0.00 | 0.00 | 75 | 1015.9 |
| 20260508034004 | 45 | 305 | 0.0 | 0.9 | 0.00 | 0.00 | 0.00 | 75 | 1015.9 |
| 20260508033504 | 45 | 305 | 0.0 | 0.9 | 0.00 | 0.00 | 0.00 | 74 | 1015.9 |
| 20260508033014 | 45 | 305 | 0.0 | 0.9 | 0.00 | 0.00 | 0.00 | 73 | 1015.9 |
| 20260508032009 | 46 | 305 | 0.9 | 0.9 | 0.00 | 0.00 | 0.00 | 72 | 1015.9 |
| 20260508031524 | 46 | 305 | 0.0 | 0.9 | 0.00 | 0.00 | 0.00 | 71 | 1015.9 |
| 20260508030507 | 47 | 305 | 0.0 | 0.0 | 0.00 | 0.00 | 0.00 | 70 | 1015.9 |
| 20260508030022 | 47 | 305 | 0.0 | 1.7 | 0.00 | 0.00 | 0.00 | 69 | 1015.8 |
| 20260508025507 | 47 | 305 | 0.0 | 1.7 | 0.00 | 0.00 | 0.00 | 69 | 1015.8 |
| 20260508025004 | 47 | 305 | 0.0 | 0.0 | 0.00 | 0.00 | 0.00 | 68 | 1015.8 |
| 20260508024004 | 48 | 305 | 0.0 | 0.0 | 0.00 | 0.00 | 0.00 | 66 | 1015.7 |
| 20260508023504 | 48 | 305 | 0.0 | 0.9 | 0.00 | 0.00 | 0.00 | 66 | 1015.6 |
| 20260508023011 | 48 | 305 | 0.0 | 1.7 | 0.00 | 0.00 | 0.00 | 66 | 1015.5 |
| 20260508022504 | 49 | 305 | 0.0 | 1.7 | 0.00 | 0.00 | 0.00 | 66 | 1015.4 |
| 20260508022006 | 49 | 305 | 0.0 | 1.7 | 0.00 | 0.00 | 0.00 | 65 | 1015.4 |
| 20260508021520 | 49 | 305 | 0.0 | 1.7 | 0.00 | 0.00 | 0.00 | 65 | 1015.3 |
| 20260508021009 | 49 | 305 | 0.0 | 1.7 | 0.00 | 0.00 | 0.00 | 63 | 1015.2 |
| 20260508020507 | 49 | 305 | 0.0 | 1.7 | 0.00 | 0.00 | 0.00 | 64 | 1015.2 |
| 20260508020033 | 49 | 305 | 0.0 | 1.7 | 0.00 | 0.00 | 0.00 | 63 | 1015.1 |
| 20260508015507 | 50 | 305 | 0.0 | 1.7 | 0.00 | 0.00 | 0.00 | 62 | 1015.1 |
| 20260508015009 | 50 | 305 | 0.0 | 0.9 | 0.00 | 0.00 | 0.00 | 61 | 1015.0 |
| 20260508014526 | 50 | 305 | 0.0 | 1.7 | 0.00 | 0.00 | 0.00 | 61 | 1014.9 |
| 20260508014004 | 51 | 305 | 0.9 | 1.7 | 0.00 | 0.00 | 0.00 | 60 | 1014.8 |
| 20260508013507 | 51 | 305 | 0.0 | 1.7 | 0.00 | 0.00 | 0.00 | 58 | 1014.7 |
| 20260508013011 | 52 | 305 | 0.0 | 1.7 | 0.00 | 0.00 | 0.00 | 57 | 1014.6 |
| 20260508012507 | 52 | 305 | 0.9 | 1.7 | 0.00 | 0.00 | 0.00 | 56 | 1014.5 |
| 20260508012007 | 53 | 305 | 0.9 | 1.7 | 0.00 | 0.00 | 0.00 | 56 | 1014.4 |
| 20260508011514 | 53 | 319 | 0.9 | 1.7 | 0.00 | 0.00 | 0.00 | 55 | 1014.2 |
| 20260508011007 | 54 | 319 | 0.0 | 1.7 | 0.00 | 0.00 | 0.00 | 54 | 1014.3 |
| 20260508005507 | 56 | 319 | 0.0 | 1.7 | 0.00 | 0.00 | 0.00 | 51 | 1014.1 |
| 20260508004013 | 57 | 319 | 0.0 | 1.7 | 0.00 | 0.00 | 0.00 | 47 | 1014.0 |
| 20260508003006 | 58 | 319 | 0.0 | 0.0 | 0.00 | 0.00 | 0.00 | 45 | 1013.9 |
| 20260508002506 | 59 | 319 | 0.0 | 0.0 | 0.00 | 0.00 | 0.00 | 45 | 1013.8 |
| 20260508002008 | 60 | 319 | 0.0 | 0.0 | 0.00 | 0.00 | 0.00 | 42 | 1013.8 |
| 20260508001512 | 60 | 319 | 0.0 | 0.0 | 0.00 | 0.00 | 0.00 | 43 | 1013.7 |
| 20260508001004 | 61 | 319 | 0.0 | 0.0 | 0.00 | 0.00 | 0.00 | 40 | 1013.7 |
| 20260508000508 | 61 | 319 | 0.0 | 0.9 | 0.00 | 0.00 | 0.00 | 40 | 1013.6 |
| 20260508000017 | 62 | 319 | 0.0 | 1.7 | 0.00 | 0.00 | 0.00 | 38 | 1013.6 |
| 20260507235513 | 62 | 319 | 0.0 | 1.7 | 0.00 | 0.00 | 0.00 | 36 | 1013.6 |
| 20260507235005 | 62 | 291 | 0.0 | 1.7 | 0.00 | 0.00 | 0.00 | 35 | 1013.5 |
| 20260507234526 | 63 | 291 | 0.0 | 2.6 | 0.00 | 0.00 | 0.00 | 34 | 1013.4 |
| 20260507234007 | 63 | 295 | 0.9 | 2.6 | 0.00 | 0.00 | 0.00 | 34 | 1013.3 |
| 20260507233507 | 63 | 287 | 0.9 | 4.3 | 0.00 | 0.00 | 0.00 | 34 | 1013.3 |
| 20260507233024 | 63 | 280 | 1.7 | 6.1 | 0.00 | 0.00 | 0.00 | 32 | 1013.2 |
| 20260507232511 | 63 | 312 | 1.7 | 6.1 | 0.00 | 0.00 | 0.00 | 32 | 1013.2 |
| 20260507232005 | 63 | 287 | 0.9 | 7.0 | 0.00 | 0.00 | 0.00 | 33 | 1013.2 |
| 20260507231511 | 63 | 309 | 0.9 | 7.0 | 0.00 | 0.00 | 0.00 | 32 | 1013.1 |
| 20260507231007 | 64 | 276 | 0.9 | 6.1 | 0.00 | 0.00 | 0.00 | 32 | 1013.1 |
| 20260507230507 | 63 | 293 | 0.9 | 7.0 | 0.00 | 0.00 | 0.00 | 33 | 1013.1 |
| 20260507230015 | 63 | 322 | 1.7 | 7.0 | 0.00 | 0.00 | 0.00 | 31 | 1013.1 |
| 20260507225507 | 63 | 310 | 0.9 | 3.5 | 0.00 | 0.00 | 0.00 | 31 | 1013.1 |
| 20260507225008 | 63 | 304 | 0.9 | 7.8 | 0.00 | 0.00 | 0.00 | 32 | 1013.2 |
| 20260507224525 | 63 | 303 | 0.9 | 7.8 | 0.00 | 0.00 | 0.00 | 32 | 1013.2 |
| 20260507224007 | 63 | 289 | 1.7 | 7.0 | 0.00 | 0.00 | 0.00 | 32 | 1013.1 |
| 20260507223510 | 63 | 264 | 2.6 | 9.6 | 0.00 | 0.00 | 0.00 | 32 | 1013.1 |
| 20260507223025 | 64 | 271 | 4.3 | 9.6 | 0.00 | 0.00 | 0.00 | 33 | 1013.1 |
| 20260507222509 | 64 | 240 | 0.9 | 9.6 | 0.00 | 0.00 | 0.00 | 34 | 1013.0 |
| 20260507222010 | 64 | 283 | 4.3 | 9.6 | 0.00 | 0.00 | 0.00 | 32 | 1013.1 |
| 20260507221526 | 64 | 268 | 4.3 | 8.7 | 0.00 | 0.00 | 0.00 | 32 | 1013.0 |
| 20260507221009 | 63 | 274 | 1.7 | 10.4 | 0.00 | 0.00 | 0.00 | 34 | 1012.9 |
| 20260507220506 | 63 | 285 | 4.3 | 10.4 | 0.00 | 0.00 | 0.00 | 36 | 1012.9 |
| 20260507220014 | 63 | 280 | 3.5 | 8.7 | 0.00 | 0.00 | 0.00 | 34 | 1012.8 |
| 20260507215507 | 63 | 329 | 2.6 | 9.6 | 0.00 | 0.00 | 0.00 | 33 | 1012.8 |
| 20260507215007 | 63 | 284 | 3.5 | 9.6 | 0.00 | 0.00 | 0.00 | 35 | 1012.6 |
| 20260507214523 | 63 | 294 | 3.5 | 11.3 | 0.00 | 0.00 | 0.00 | 36 | 1012.7 |
| 20260507214009 | 63 | 287 | 2.6 | 11.3 | 0.00 | 0.00 | 0.00 | 37 | 1012.7 |
| 20260507213508 | 63 | 280 | 4.3 | 11.3 | 0.00 | 0.00 | 0.00 | 37 | 1012.7 |
| 20260507213020 | 63 | 264 | 0.9 | 8.7 | 0.00 | 0.00 | 0.00 | 35 | 1012.5 |
| 20260507212511 | 63 | 231 | 1.7 | 6.1 | 0.00 | 0.00 | 0.00 | 38 | 1012.5 |
| 20260507212010 | 63 | 280 | 0.9 | 6.1 | 0.00 | 0.00 | 0.00 | 39 | 1012.4 |
| 20260507211523 | 63 | 287 | 0.9 | 7.0 | 0.00 | 0.00 | 0.00 | 38 | 1012.3 |
| 20260507211008 | 63 | 274 | 2.6 | 9.6 | 0.00 | 0.00 | 0.00 | 38 | 1012.4 |
| 20260507210518 | 63 | 299 | 2.6 | 9.6 | 0.00 | 0.00 | 0.00 | 39 | 1012.5 |
| 20260507210028 | 63 | 313 | 0.9 | 7.8 | 0.00 | 0.00 | 0.00 | 39 | 1012.4 |
| 20260507205508 | 63 | 281 | 3.5 | 7.8 | 0.00 | 0.00 | 0.00 | 37 | 1012.4 |
| 20260507205007 | 63 | 264 | 3.5 | 8.7 | 0.00 | 0.00 | 0.00 | 37 | 1012.1 |
| 20260507204518 | 63 | 276 | 1.7 | 8.7 | 0.00 | 0.00 | 0.00 | 39 | 1012.2 |
| 20260507204006 | 63 | 286 | 4.3 | 8.7 | 0.00 | 0.00 | 0.00 | 38 | 1012.2 |
| 20260507203512 | 63 | 282 | 3.5 | 9.6 | 0.00 | 0.00 | 0.00 | 40 | 1012.2 |
| 20260507203020 | 63 | 288 | 3.5 | 9.6 | 0.00 | 0.00 | 0.00 | 39 | 1012.1 |
| 20260507202509 | 63 | 338 | 2.6 | 7.8 | 0.00 | 0.00 | 0.00 | 39 | 1012.1 |
| 20260507202010 | 63 | 42 | 0.9 | 10.4 | 0.00 | 0.00 | 0.00 | 38 | 1012.1 |
| 20260507201525 | 63 | 294 | 2.6 | 10.4 | 0.00 | 0.00 | 0.00 | 38 | 1012.1 |
| 20260507201010 | 63 | 287 | 2.6 | 9.6 | 0.00 | 0.00 | 0.00 | 40 | 1012.1 |
| 20260507200508 | 63 | 304 | 1.7 | 9.6 | 0.00 | 0.00 | 0.00 | 38 | 1012.1 |
| 20260507200027 | 64 | 303 | 1.7 | 7.0 | 0.00 | 0.00 | 0.00 | 40 | 1012.1 |
| 20260507195509 | 64 | 120 | 0.9 | 7.0 | 0.00 | 0.00 | 0.00 | 40 | 1012.2 |
| 20260507195013 | 64 | 290 | 3.5 | 7.8 | 0.00 | 0.00 | 0.00 | 39 | 1012.4 |
| 20260507194515 | 64 | 253 | 1.7 | 7.8 | 0.00 | 0.00 | 0.00 | 40 | 1012.4 |
| 20260507193509 | 64 | 253 | 0.9 | 8.7 | 0.00 | 0.00 | 0.00 | 40 | 1012.2 |
| 20260507192508 | 64 | 229 | 1.7 | 7.0 | 0.00 | 0.00 | 0.00 | 42 | 1012.4 |
| 20260507192008 | 64 | 251 | 1.7 | 7.8 | 0.00 | 0.00 | 0.00 | 40 | 1012.5 |
| 20260507191522 | 64 | 291 | 2.6 | 7.8 | 0.00 | 0.00 | 0.00 | 38 | 1012.4 |
| 20260507191009 | 64 | 109 | 1.7 | 4.3 | 0.00 | 0.00 | 0.00 | 42 | 1012.5 |
| 20260507190511 | 64 | 185 | 0.9 | 6.1 | 0.00 | 0.00 | 0.00 | 41 | 1012.6 |
| 20260507190026 | 64 | 322 | 1.7 | 6.1 | 0.00 | 0.00 | 0.00 | 41 | 1012.7 |
| 20260507185512 | 63 | 256 | 2.6 | 6.1 | 0.00 | 0.00 | 0.00 | 43 | 1012.9 |
| 20260507185011 | 63 | 94 | 2.6 | 6.1 | 0.00 | 0.00 | 0.00 | 42 | 1012.9 |
| 20260507184515 | 62 | 242 | 0.9 | 8.7 | 0.00 | 0.00 | 0.00 | 46 | 1013.0 |
| 20260507184007 | 62 | 276 | 3.5 | 8.7 | 0.00 | 0.00 | 0.00 | 42 | 1013.0 |
| 20260507183506 | 62 | 344 | 2.6 | 9.6 | 0.00 | 0.00 | 0.00 | 42 | 1013.1 |
| 20260507183018 | 62 | 324 | 4.3 | 9.6 | 0.00 | 0.00 | 0.00 | 41 | 1013.0 |
| 20260507182508 | 61 | 359 | 1.7 | 7.8 | 0.00 | 0.00 | 0.00 | 44 | 1013.1 |
| 20260507182002 | 61 | 278 | 1.7 | 7.0 | 0.00 | 0.00 | 0.00 | 44 | 1013.2 |
| 20260507181506 | 62 | 298 | 2.6 | 9.6 | 0.00 | 0.00 | 0.00 | 44 | 1013.3 |
| 20260507181003 | 62 | 290 | 1.7 | 9.6 | 0.00 | 0.00 | 0.00 | 44 | 1013.2 |
| 20260507180504 | 62 | 301 | 0.9 | 8.7 | 0.00 | 0.00 | 0.00 | 44 | 1013.2 |
| 20260507180007 | 62 | 268 | 1.7 | 8.7 | 0.00 | 0.00 | 0.00 | 43 | 1013.2 |
| 20260507175503 | 62 | 268 | 1.7 | 6.1 | 0.00 | 0.00 | 0.00 | 49 | 1013.3 |
| 20260507175006 | 62 | 259 | 1.7 | 6.1 | 0.00 | 0.00 | 0.00 | 42 | 1013.3 |
| 20260507174511 | 63 | 284 | 0.9 | 9.6 | 0.00 | 0.00 | 0.00 | 42 | 1013.4 |
| 20260507174004 | 64 | 256 | 1.7 | 9.6 | 0.00 | 0.00 | 0.00 | 44 | 1013.5 |
| 20260507173030 | 64 | 270 | 2.6 | 6.1 | 0.00 | 0.00 | 0.00 | 46 | 1013.5 |
| 20260507172008 | 63 | 174 | 1.7 | 7.8 | 0.00 | 0.00 | 0.00 | 42 | 1013.5 |
| 20260507171522 | 63 | 290 | 4.3 | 7.0 | 0.00 | 0.00 | 0.00 | 43 | 1013.6 |
| 20260507171003 | 63 | 15 | 0.9 | 4.3 | 0.00 | 0.00 | 0.00 | 41 | 1013.5 |
| 20260507170503 | 63 | 289 | 0.9 | 4.3 | 0.00 | 0.00 | 0.00 | 44 | 1013.7 |
| 20260507170005 | 63 | 303 | 0.9 | 4.3 | 0.00 | 0.00 | 0.00 | 44 | 1013.7 |
| 20260507165002 | 63 | 264 | 1.7 | 7.0 | 0.00 | 0.00 | 0.00 | 43 | 1013.9 |
| 20260507164510 | 62 | 261 | 1.7 | 12.2 | 0.00 | 0.00 | 0.00 | 47 | 1013.9 |
| 20260507164003 | 62 | 304 | 4.3 | 12.2 | 0.00 | 0.00 | 0.00 | 43 | 1014.0 |
| 20260507163505 | 62 | 275 | 0.0 | 7.8 | 0.00 | 0.00 | 0.00 | 46 | 1013.9 |
| 20260507163015 | 62 | 198 | 0.9 | 7.8 | 0.00 | 0.00 | 0.00 | 47 | 1013.9 |
| 20260507162507 | 62 | 304 | 1.7 | 7.0 | 0.00 | 0.00 | 0.00 | 46 | 1013.9 |
| 20260507162008 | 62 | 272 | 2.6 | 6.1 | 0.00 | 0.00 | 0.00 | 45 | 1014.0 |
| 20260507161523 | 62 | 225 | 1.7 | 9.6 | 0.00 | 0.00 | 0.00 | 49 | 1014.0 |
| 20260507161006 | 61 | 288 | 4.3 | 9.6 | 0.00 | 0.00 | 0.00 | 46 | 1014.2 |
| 20260507160004 | 62 | 133 | 1.7 | 7.0 | 0.00 | 0.00 | 0.00 | 47 | 1014.0 |
| 20260507155504 | 62 | 256 | 0.9 | 6.1 | 0.00 | 0.00 | 0.00 | 47 | 1014.2 |
| 20260507155004 | 62 | 178 | 0.9 | 6.1 | 0.00 | 0.00 | 0.00 | 49 | 1014.1 |
| 20260507154508 | 61 | 231 | 2.6 | 6.1 | 0.00 | 0.00 | 0.00 | 51 | 1014.1 |
| 20260507154003 | 60 | 149 | 0.9 | 4.3 | 0.00 | 0.00 | 0.00 | 48 | 1014.2 |
| 20260507153505 | 60 | 293 | 1.7 | 4.3 | 0.00 | 0.00 | 0.00 | 49 | 1014.2 |